www.pogodaiklimat.ru

Погода и климат >> Архив погоды >> Россия >> Якутия >> Тикси


АРХИВ ПОГОДЫ в Тикси

Время (UTC), дата Ветер
(напр.,м/с)
 
Видим.   Явления Облачность Т
(С)
Тd
(С)
f
(%)
Тe
(С)
Тes
(С)
Комфортность P
(гПа)
Po
(гПа)
Тmin
(С)
Tmax
(С)
R
(мм)
R24
(мм)
S
(см)
06 17.02 ЮЗ 11-15
{19}
20 км сильный позёмок 10/3 1500 м
[Sc Ac trans Ci fib]
-20.2 -22.6 81 -34 -34 опасность
обморожения
1001.1 1000.2
09 17.02 ЮЗ 12-15
{19}
20 км сильный позёмок 10/0
[Ac und]
-20.8 -22.2 88 -36 -36 опасность
обморожения
1000.9 1000.0
12 17.02 ЮЗ 6
{16}
10 км снежные кристаллы {метель} 10/0
[Ac As]
-21.2 -22.7 88 -32 -32 опасность
обморожения
1002.1 1001.2 -20.1 0.0
15 17.02 ЮЗ 8-10
{13}
10 км снежные кристаллы {метель} 10/3 1000 м
[Sc Ac As]
-21.2 -22.7 88 -34 -34 опасность
обморожения
1002.9 1002.0
18 17.02 З 9-12
{12}
4000 м слаб. снег {метель} 10/5 1000 м
[Sc Ac As]
-20.6 -21.6 92 -34 -34 опасность
обморожения
1003.5 1002.6
21 17.02 ЮЗ 6
{12}
20 км позёмок {снег} 10/0
[Ac trans Ci sp]
-21.2 -23.5 82 -32 -32 опасность
обморожения
1004.4 1003.5
00 18.02 ЮЗ 6
{11}
20 км позёмок {снег} 10/0
[Ac trans Ci sp]
-21.6 -23.7 83 -33 -33 опасность
обморожения
1005.3 1004.4 -22.6 0.0 3
03 18.02 ЮЗ 8-11
{11}
20 км позёмок 10/0
[Ac trans Ci sp]
-19.3 -21.9 80 -31 -31 опасность
обморожения
1005.0 1004.1
06 18.02 ЮЗ 9-11
{13}
20 км позёмок 10/0
[Ac lent Ci fib]
-19.3 -21.8 81 -32 -32 опасность
обморожения
1005.9 1005.0
09 18.02 ЮЗ 10-13
{13}
20 км сильный позёмок 10/0
[Ac und Ci fib]
-16.9 -20.8 72 -29 -29 тепло 1005.9 1005.0
12 18.02 ЮЗ 11-15
{15}
20 км сильный позёмок 10/0
[Ac lent Ci fib]
-17.0 -20.6 74 -30 -30 по сезону 1006.3 1005.4 -15.8
15 18.02 ЮВ 7-10
{15}
20 км позёмок 8/0
[Ac lent Ci fib]
-17.7 -20.5 79 -29 -29 тепло 1006.7 1005.8
18 18.02 ЮЗ 8-10
{13}
20 км позёмок 5/0
[Ac lent Ci fib]
-17.3 -20.5 76 -29 -29 тепло 1006.7 1005.8
21 18.02 ЮЗ 11-15
{16}
20 км сильный позёмок 10/0
[Ac trans Cs]
-17.4 -21.6 70 -31 -31 опасность
обморожения
1007.5 1006.6
00 19.02 Ю 7-10
{15}
20 км позёмок 10/0
[Ac und]
-18.7 -22.2 74 -30 -30 по сезону 1008.1 1007.2 -20.0 3
03 19.02 Ю 9-12
{14}
20 км позёмок 10/0
[Ac lent Ci fib]
-19.8 -23.3 74 -33 -33 опасность
обморожения
1008.3 1007.4
06 19.02 Ю 7
{14}
20 км позёмок 10/0
[Ac trans Ci fib]
-18.9 -22.4 74 -30 -30 по сезону 1009.5 1008.6
09 19.02 Ю 6 20 км позёмок 10/0
[Ac trans Ci fib]
-19.9 -23.4 74 -31 -31 опасность
обморожения
1010.6 1009.7
12 19.02 ЮЗ 6
{11}
20 км позёмок 10/0
[Ac trans Ci fib]
-20.4 -24.2 72 -31 -31 опасность
обморожения
1011.3 1010.4 -17.8
15 19.02 З 5 20 км позёмок 10/0
[Cs]
-19.9 -23.4 74 -30 -30 по сезону 1012.0 1011.1
18 19.02 З 6 20 км позёмок 10/0
[Ac trans Cs]
-21.3 -24.4 76 -33 -33 опасность
обморожения
1012.9 1012.0
21 19.02 ЮЗ 8-10
{12}
20 км позёмок 10/0
[Ac trans Cs]
-21.5 -24.6 76 -34 -34 опасность
обморожения
1013.7 1012.8
00 20.02 ЮЗ 6
{11}
20 км позёмок 8/0
[Ac trans Ci fib]
-19.9 -23.1 76 -31 -31 опасность
обморожения
1014.4 1013.5 -22.4 3
03 20.02 ЮЗ 11-16
{17}
20 км сильный позёмок 5/0
[Ci fib]
-19.5 -22.1 80 -33 -33 опасность
обморожения
1013.4 1012.5
06 20.02 Ю 11-16
{17}
20 км сильный позёмок 5/0
[Ci fib]
-20.0 -22.4 81 -34 -34 опасность
обморожения
1014.3 1013.4
09 20.02 ЮЗ 7-10
{16}
20 км позёмок 8/0
[Ci fib]
-19.4 -22.1 79 -31 -31 опасность
обморожения
1015.4 1014.5
12 20.02 Ю 10-13
{14}
20 км сильный позёмок 4/0
[Ci fib]
-20.1 -22.8 79 -34 -34 опасность
обморожения
1015.4 1014.5 -17.8
15 20.02 Ю 11-15
{15}
20 км сильный позёмок 4/0
[Ci fib]
-20.0 -23.0 77 -34 -34 опасность
обморожения
1015.4 1014.5
18 20.02 Ю 6
{15}
20 км позёмок 3/0
[Ci fib]
-20.8 -23.9 76 -32 -32 опасность
обморожения
1015.3 1014.4
21 20.02 ЮЗ 6
{12}
20 км позёмок 10/0
[Ac trans Cs]
-19.8 -22.4 80 -31 -31 опасность
обморожения
1014.9 1014.0
00 21.02 ЮЗ 7
{11}
20 км позёмок 10/0
[Ac trans Ci fib]
-20.0 -22.7 79 -32 -32 опасность
обморожения
1014.7 1013.8 -21.0 4
03 21.02 ЮЗ 3
{10}
20 км {метель} 10/0
[Ac trans Cs]
-21.2 -23.8 79 -29 -29 тепло 1013.8 1012.9 -21.3
06 21.02 С 1 20 км {метель} 10/0
[Ac trans Cs]
-21.2 -23.6 81 -24 -24 тепло 1012.9 1012.0
09 21.02 ЮЗ 8-10
{12}
20 км позёмок 10/0
[Ac lent Cs]
-20.5 -22.9 81 -33 -33 опасность
обморожения
1012.5 1011.6
12 21.02 Ю 12-16
{17}
20 км позёмок 10/0
[Ac trans Cs]
-19.1 -22.4 75 -33 -33 опасность
обморожения
1011.4 1010.5 -18.1
15 21.02 ЮЗ 11-15
{19}
20 км позёмок 10/0
[Ac trans Cs]
-19.2 -21.4 83 -33 -33 опасность
обморожения
1010.5 1009.6
18 21.02 З 12-15
{16}
20 км позёмок 10/0
[Ac As]
-18.0 -20.1 84 -32 -32 опасность
обморожения
1008.9 1008.0
21 21.02 З 9-13
{17}
20 км позёмок 10/0
[Ac As]
-18.6 -20.8 83 -31 -31 опасность
обморожения
1009.4 1008.5
00 22.02 З 11-15
{16}
4000 м слаб. снег {метель} 10/10 1000 м
[Sc]
-21.5 -23.9 81 -36 -36 опасность
обморожения
1011.3 1010.4 -21.6 0.0 3
03 22.02 З 10-13
{14}
4000 м слаб. снег {метель} 10/3 1000 м
[Sc Ac trans]
-23.4 -25.1 86 -38 -38 опасность
обморожения
1013.0 1012.1 -23.5
06 22.02 З 10-14
{14}
4000 м слаб. снег {метель} 10/8 1000 м
[Sc Ac trans]
-24.6 -26.5 84 -40 -40 опасность
обморожения
1013.1 1012.2
09 22.02 З 7-11
{17}
4000 м слаб. снег {метель} 10/5 1000 м
[Sc Ac trans]
-23.7 -25.1 88 -36 -36 опасность
обморожения
1014.6 1013.7
12 22.02 ЮЗ 10-14
{14}
4000 м слаб. снег {метель} 10/0
[Ac As]
-23.2 -25.3 83 -38 -38 опасность
обморожения
1015.4 1014.5 -21.5 0.0
15 22.02 З 8-12
{14}
4000 м слаб. снег {метель} 10/0
[Ac As]
-24.2 -26.2 83 -38 -38 опасность
обморожения
1015.5 1014.6
18 22.02 ЮЗ 8-12
{14}
4000 м слаб. снег {метель} 10/4 1000 м
[Sc Ac As]
-25.7 -27.5 85 -40 -40 опасность
обморожения
1015.2 1014.2
21 22.02 ЮЗ 11-15
{17}
1000 м слаб. снег {метель} 10/0
[Ac As]
-25.6 -26.7 90 -42 -42 опасность
обморожения
1014.4 1013.4
00 23.02 Ю 5
{15}
4000 м слаб. снег {метель} 10/0
[Ac trans Cs]
-26.0 -26.8 93 -38 -38 опасность
обморожения
1014.6 1013.6 -26.8 0.3 3
03 23.02 ЮЗ 7
{14}
4000 м слаб. снег {метель} 10/0
[Ac lent Ci sp]
-25.9 -27.4 87 -39 -39 опасность
обморожения
1013.9 1012.9
06 23.02 ЮЗ 6
{11}
20 км позёмок {снег} 10/0
[Ac lent Ci fib]
-24.7 -27.4 78 -37 -37 опасность
обморожения
1013.6 1012.7
09 23.02 ЮЗ 8-10
{11}
20 км позёмок 10/0
[Ac lent Ci fib]
-26.3 -28.5 82 -41 -41 опасность
обморожения
1012.6 1011.6
12 23.02 ЮВ 2
{10}
20 км {метель} 8/0
[Ci fib]
-26.5 -28.5 83 -33 -33 опасность
обморожения
1011.9 1010.9 -24.4 0.0
15 23.02 ЮЗ 5 20 км позёмок 8/0
[Ci fib]
-24.9 -27.5 79 -36 -36 опасность
обморожения
1010.3 1009.4
18 23.02 ЮЗ 9-10
{11}
20 км позёмок 10/0
[Ac trans Ci fib]
-24.4 -27.0 79 -39 -39 опасность
обморожения
1009.2 1008.3
21 23.02 ЮЗ 7
{12}
20 км позёмок 10/0
[Ci fib]
-24.2 -27.1 77 -37 -37 опасность
обморожения
1008.3 1007.4
00 24.02 ЮЗ 7
{11}
20 км позёмок 10/0
[Ac lent Ci fib]
-22.6 -25.1 80 -35 -35 опасность
обморожения
1007.0 1006.1 -26.6 3

 

Местоположение метеостанции Тикси (Якутия, Россия): широта 71.58 долгота 128.90 высота над уровнем моря 7 м.

В архиве по умолчанию представлена погода в Тикси за последнюю неделю. Архивные данные за месяц целиком и за предыдущие месяцы, начиная с января 2011 года, Вы можете получить, выбрав интересующий диапазон дат из раскрывающегося списка и нажав кнопку "Ввод!".


*Определитесь, кто Вы:
робот инопланетянин человек

Внимание! Время в таблицах - всемирное. Для получения местного времени необходимо прибавить поправку, которая равна 9 ч.

Смотрите также архив погоды в соседних городах и на ближайших метеорологических станциях:

Погода на Мысе Быков (Якутия, Россия) (47 км)
Погода в Кюсюре (Якутия, Россия) (114 км)
Погода на Столб Острове (Якутия, Россия) (128 км)
Погода в Тюмяти (Якутия, Россия) (192 км)
Погода в Юбилейной (Якутия, Россия) (277 км)
Погода в Усть-Куйге (Якутия, Россия) (301 км)
Погода на Усть-Оленеке (Якутия, Россия) (346 км)
Погода в Джарджане (Якутия, Россия) (367 км)
Погода на Мысе Кигилях (Якутия, Россия) (413 км)
Погода в Батагай-Алыте (Якутия, Россия) (427 км)

Пояснения к столбцам:

Ветер - указаны скорость ветра в м/с - средняя за 10 мин, порывы в срок и между сроками (в фигурных скобках) и направление, откуда дует ветер: С - северный, СВ - северо-восточный, В - восточный, ЮВ - юго-восточный, Ю - южный, ЮЗ - юго-западный, З - западный, СЗ - северо-западный.
Видимость - горизонтальная дальность видимости в метрах или километрах. При видимости от 1 до 10 км при отсутствии осадков обычно наблюдается дымка, при ухудшении видимости до 1 км и менее - туман. В сухую погоду видимость может ухудшаться дымом, пылью или мглою.
Явления - указаны атмосферные явления, наблюдавшиеся в срок или в последний час перед сроком; фигурными скобками обозначены явления, наблюдавшиеся между сроками (за 1-3 часа до срока); квадратными скобками обозначены град или гололедные отложения с указанием их диаметра в мм.
Облачность - указаны через наклонную черту общая и нижняя облачность в баллах и высота нижней границы облаков в метрах; квадратными скобками обозначены формы облаков: Ci - перистые, Cs - перисто-слоистые, Cc - перисто-кучевые, Ac - высококучевые, As - высокослоистые, Sc - слоисто-кучевые, Ns - слоисто-дождевые, Cu - кучевые, Cb - кучево-дождевые. Подробнее классификацию облаков см. в Атласе облаков (PDF).
T - Температура воздуха - температура, измеренная на высоте 2 м над землей.
Td - Температура точки росы - температура, при понижении до которой содержащийся в воздухе водяной пар достигнет насыщения.
f - Относительная влажность воздуха - влажноcть воздуха, измеренная на высоте 2 м над землей.
Te - Эффективная температура - температура, которую ощущает одетый по сезону человек в тени. Характеристика душности погоды. При расчете учитывается влияние влажности воздуха и скорости ветра на теплоощущения человека.
Tes - Эффективная температура на солнце - температура, которую ощущает человек, с поправкой на солнечный нагрев. Характеристика знойности погоды. Зависит от высоты солнца над горизонтом, облачности и скорости ветра. Ночью, в пасмурную погоду, а также при ветре 12 м/с и более поправка равна нулю.
P - Атмосферное давление - приведенное к уровню моря атмосферное давление.
Po - Атмосферное давление - измеренное на уровне метеостанции атмосферное давление.
Tmin - Минимальная температура - минимум температуры воздуха на высоте 2 м над землей.
Tmax - Максимальная температура - максимум температуры воздуха на высоте 2 м над землей.
R - Количество осадков - Количество выпавших осадков за период времени, мм. При наведении курсора мыши на число - период времени, за который выпало указанное количество осадков.
R24 - Количество осадков - Количество выпавших осадков за 24 часа, мм.
S - Снежный покров - Высота снежного покрова, см. При наведении курсора мыши на число - состояние снежного покрова и степень покрытия местности в баллах.